Regional Weather Roundup
Issued by NWS

Home | Current Version | Previous Version | Text Only | Print | Product List | Glossary On
Versions: 1 2 3 4 5 6 7 8 9 10 11 12 13 14 15 16 17 18 19 20 21 22 23 24 25 26 27 28 29 30 31 32 33 34 35 36 37 38 39 40 41 42 43 44 45 46 47 48 49 50
000
ASUS44 KOUN 261210
RWROK

WEATHER ROUNDUP FOR OKLAHOMA
NATIONAL WEATHER SERVICE NORMAN OK
600 AM CST SUN FEB 26 2017

NOTE: "FAIR" INDICATES FEW OR NO CLOUDS BELOW 12,000 FEET WITH NO
      SIGNIFICANT WEATHER AND/OR OBSTRUCTIONS TO VISIBILITY.

OKZ001>007-009>012-014-015-017-261300-
NORTHWEST OKLAHOMA AND THE PANHANDLE

CITY           SKY/WX    TMP DP  RH WIND       PRES   REMARKS
GAGE           PTCLDY    31  20  63 S8        29.85F WCI  23
6HR MIN TEMP:  27; 6HR MAX TEMP:  35;

GUYMON         CLEAR     28  10  46 NW7       29.82S WCI  21
ENID/WOODRING  CLOUDY    34  30  86 CALM      29.93R
$$

OKZ016-021>023-033>039-044-045-261300-
SOUTHWEST OKLAHOMA

CITY           SKY/WX    TMP DP  RH WIND       PRES   REMARKS
LAWTON/FT SILL MOCLDY    35  27  71 S5        29.90R WCI  31
FREDERICK      PTCLDY    33  27  78 E9        29.87R WCI  25
CLINTON        CLOUDY    37  24  59 S17       29.86S WCI  27
HOBART         CLOUDY    38  26  62 S13       29.89R WCI  30
ALTUS AFB      CLOUDY    36  25  66 SE9       29.88R WCI  29
$$

OKZ018>020-024>031-261300-
CENTRAL OKLAHOMA

CITY           SKY/WX    TMP DP  RH WIND       PRES   REMARKS
OKLAHOMA CITY  CLOUDY    38  24  57 S14       29.92R WCI  30
6HR MIN TEMP:  33; 6HR MAX TEMP:  38;

OKC/WILEY POST PTCLDY    41  24  51 S21       29.91S WCI  32
OKC/TINKER AFB PTCLDY    39  23  53 S13       29.91S WCI  31
STILLWATER     CLOUDY    39  20  46 SE10      29.94S WCI  32
GUTHRIE        CLOUDY    39  22  50 S8        29.92S WCI  33
$$

OKZ008-013-054>072-261300-
NORTHEAST OKLAHOMA

CITY           SKY/WX    TMP DP  RH WIND       PRES   REMARKS
TULSA          CLOUDY    40  21  46 S6        29.99R
6HR MIN TEMP:  33; 6HR MAX TEMP:  40;

TULSA/JONES    MOCLDY    39  22  50 S8        29.99S WCI  33
PONCA CITY     MOCLDY    38  19  46 SE8       29.96S WCI  32
BARTLESVILLE   CLOUDY    35  24  64 SE3       30.02R
MUSKOGEE       CLOUDY    36  27  69 S8        30.03R WCI  30
$$

OKZ032-040>043-046>053-073>077-261300-
SOUTH CENTRAL/SOUTHEAST OKLAHOMA

CITY           SKY/WX    TMP DP  RH WIND       PRES   REMARKS
ARDMORE/DWNTWN PTCLDY    34  27  75 CALM      29.96F
MCALESTER      PTCLDY    36  23  59 SE6       30.01R WCI  31
$$




USA.gov is the U.S. government's official web portal to all federal, state and local government web resources and services.